RH
60 62 60 56 52 56 61 86 80 71 62 54 54 60 69 71 86 91 86 76 72 68 60 41 36 35 37 40 42 44 45 47 50 52 53 56 57 57
67 66 70 67 63 58 65 71 76 71 62 52 49 54 43 47 63 97 96 84 75 74 70 49 35 33 33 34 37 39 42 46 49 53 55 54 54 56
77 76 73 78 70 63 67 70 78 81 78 65 56 45 33 39 62 72 96 94 79 76 76 66 37 32 34 37 40 43 46 50 53 55 58 59 61 66
90 86 86 86 81 79 81 91 87 86 81 73 68 60 58 59 68 93 98 99 82 78 76 78 55 41 44 46 51 53 55 56 56 59 64 67 72 76
97 96 95 94 93 97 88 92 96 92 88 83 78 77 75 70 99 98 96 83 98 90 85 85 83 69 59 56 59 62 61 65 67 68 73 76 81 82
98 98 99 97 97 94 90 83 86 77 84 79 76 83 89 89 87 90 87 95 93 99 95 96 95 87 77 71 66 66 71 74 77 79 79 81 84 86
97 98 98 91 89 82 77 69 67 66 66 63 64 69 74 87 98 95 96 97 96 95 98 98 98 94 88 79 74 75 78 82 81 80 82 84 84 82
87 91 93 91 91 85 79 72 68 66 62 57 57 57 67 74 90 97 99 97 96 93 99 98 98 96 93 85 79 78 80 83 84 87 86 83 82 80
54 64 71 75 80 83 80 77 71 64 61 60 58 60 66 69 69 83 91 97 93 94 97 99 98 98 97 91 87 86 84 85 86 84 84 82 82 81
36 40 42 47 52 50 54 68 73 71 67 63 62 65 64 63 65 73 86 94 96 97 98 98 98 99 99 97 93 90 92 85 84 85 83 80 82 82
35 40 35 37 37 40 43 40 41 45 53 58 64 72 76 90 93 80 88 98 97 98 98 98 98 98 98 98 98 98 97 95 95 98 92 92 90 84
24 24 35 37 29 33 36 41 43 42 44 47 51 57 64 73 77 84 84 94 95 96 98 98 98 98 98 98 98 98 99 97 98 97 98 95 93 92
22 29 31 29 30 30 28 29 33 40 36 34 37 42 46 48 50 55 59 66 70 74 77 78 81 86 94 95 95 97 97 95 97 98 97 96 95 95
22 23 24 24 15 13 13 22 26 25 24 25 30 30 30 31 31 38 45 47 48 51 49 52 53 51 53 54 58 62 64 72 76 82 87 89 90 89
29 24 23 22 19 16 14 11 10 13 19 26 26 23 24 26 29 29 30 33 37 36 36 35 34 36 35 38 40 40 38 43 50 52 59 65 69 70
36 39 31 25 23 21 20 18 15 16 17 15 13 14 18 21 24 25 24 27 29 30 31 32 32 29 27 27 27 28 33 35 39 39 35 34 38 48
45 41 36 34 33 28 24 24 21 18 20 19 17 14 14 13 16 17 19 20 21 21 20 20 19 20 25 31 30 31 29 24 24 28 31 29 29 35
44 44 45 45 42 39 34 31 29 27 24 23 21 18 17 19 19 18 18 16 17 15 15 17 17 20 17 17 22 19 19 16 14 17 18 21 23 26
39 39 38 38 36 38 37 32 29 28 26 25 24 23 21 21 20 18 19 17 16 18 20 22 23 26 22 18 12 14 18 17 20 21 23 21 17 13
38 39 36 34 32 32 32 36 36 35 30 25 22 21 20 20 22 22 22 19 18 19 18 19 20 22 24 24 24 14 20 27 27 27 26 23 18 14
34 32 31 31 32 33 34 34 36 37 36 34 31 28 24 22 24 24 23 22 23 24 23 21 21 26 26 24 24 23 20 21 29 31 30 24 19 17
34 34 34 33 33 32 32 32 31 33 37 39 36 34 29 27 30 28 25 25 23 25 24 27 25 22 22 28 29 27 23 20 23 32 38 32 32 28
37 36 36 34 33 32 31 31 30 32 36 40 39 36 33 32 35 32 28 26 28 29 30 28 24 25 27 28 29 29 26 23 29 33 37 32 32 41